Regional Weather Roundup
Issued by NWS

Home | Current Version | Previous Version | Graphics & Text | Print | Product List | Glossary On
Versions: 1 2 3 4 5 6 7 8 9 10 11 12 13 14 15 16 17 18 19 20 21 22 23 24 25 26 27 28 29 30 31 32 33 34 35 36 37 38 39 40 41 42 43 44 45 46 47 48 49 50
000
ASUS43 KMPX 011110
RWRMN
WEATHER ROUNDUP FOR MINNESOTA
NATIONAL WEATHER SERVICE TWIN CITIES/CHANHASSEN MN
500 AM CST SUN FEB 01 2015


NOTE: "FAIR" INDICATES FEW OR NO CLOUDS BELOW 12,000 FEET WITH NO
SIGNIFICANT WEATHER AND/OR OBSTRUCTIONS TO VISIBILITY. N/A MEANS
CURRENT SKY AND/OR WEATHER CONDITIONS ARE NOT AVAILABLE.

MNZ060>063-068>070-011200-
   Twin Cities Metro

CITY           SKY/WX    TMP DP  RH WIND       PRES   REMARKS
TWIN CITIES    LGT SNOW  15   8  73 NE18G24   30.18S WCI  -2
ST PAUL        LGT SNOW  16   9  74 NE9G20    30.21S WCI   4
CRYSTAL        CLOUDY    16   7  67 NE14G21   30.19S HAZE    WCI   2
BLAINE         CLOUDY    18   9  68 NE13G21   30.19F WCI   4
LAKEVILLE      CLOUDY    14  10  85 NE14G21   30.14S FOG     WCI  -1
EDEN PRAIRIE   LGT SNOW  16   9  74 NE15G22   30.15F WCI   1
SOUTH ST PAUL  CLOUDY    16  10  75 NE10      30.19R WCI   4
LAKE ELMO      CLOUDY    16   9  73 NE15G22   30.19F WCI   1
$$
MNZ001>005-007-008-013>017-022>024-027-028-011200-
   Northwest Minnesota

CITY           SKY/WX    TMP DP  RH WIND       PRES   REMARKS
BEMIDJI        PTCLDY   -12 -17  77 N7        30.41S WCI -27
HALLOCK        PTCLDY   -15 -20  76 N8        30.59S WCI -32
ROSEAU         PTCLDY   -17 -24  70 N6        30.54S WCI -31
WARROAD        PTCLDY   -20 -26  76 NW6       30.53R WCI -36
THIEF RVR FALL PTCLDY   -11 -15  84 N8        30.50R WCI -28
CROOKSTON      PTCLDY    -9 -17  70 N14       30.55R WCI -31
FOSSTON        PTCLDY   -11 -17  77 N9        30.45S WCI -29
DETROIT LAKES  PTCLDY    -2  -9  71 N8        30.38R WCI -17
MOORHEAD       PTCLDY    -2  -9  71 N22G28    30.45S WCI -26
PARK RAPIDS    PTCLDY    -4 -14  62 NE13      30.34R WCI -23
MAHNOMEN       FAIR      -7 -14  71 NE14      30.41S WCI -27
$$
MNZ006-009>011-018-025>026-011200-
   North Central Minnesota

CITY           SKY/WX    TMP DP  RH WIND       PRES   REMARKS
BAUDETTE       MOCLDY   -16 -21  78 N7        30.49S WCI -32
FLAG ISLAND    PTCLDY   -20 -26  76 NW9       30.51S WCI -40
INTL FALLS     PTCLDY   -25 -30  78 N3        30.47S
WASKISH        MOCLDY   -15 -20  76 CALM      30.47S
BIG FORK       PTCLDY   -13 -18  77 N5        30.42S WCI -25
LONGVILLE      CLOUDY    -6 -13  71 N8        30.37R WCI -21
GRAND RAPIDS   CLOUDY    -6 -15  65 N9        30.35R WCI -22
CRANE LAKE     PTCLDY   -27 -33  75 CALM      30.48F
ORR            PTCLDY   -18 -24  76 CALM      30.39S
COOK           PTCLDY   -13 -18  77 NE3       30.41S
WALKER         FAIR      -8 -15  69 N5        30.39S WCI -19
$$
MNZ012-019>021-037-011200-
   Northeast Minnesota

CITY           SKY/WX    TMP DP  RH WIND       PRES   REMARKS
DULUTH         FLURRIES   0  -7  72 N9        30.29F WCI -15
ELY            MOCLDY   -15 -18  84 CALM      30.39F
HIBBING        CLOUDY    -5 -15  62 N9        30.37S WCI -22
EVELETH        CLOUDY    -6 -15  65 NE9       30.38S WCI -22
DULUTH HARBOR  CLOUDY    12   9  85 NE30      30.36S WCI  -9
TWO HARBORS    MOCLDY     3  -2  78 N9        30.33S WCI -11
SILVER BAY     MOCLDY    -2  -9  71 N5        30.36S WCI -12
GRAND MARAIS     N/A     -5 -18  53 N6        30.47S WCI -18
G MARAIS ARPRT MOCLDY   -13 -22  64 N10       30.31S WCI -32
$$
MNZ029>031-032-039>041-046>048-054>057-064-011200-
   West Central Minnesota

CITY           SKY/WX    TMP DP  RH WIND       PRES   REMARKS
FERGUS FALLS   PTCLDY     1  -9  60 NE10G16   30.38S WCI -14
WHEATON        CLOUDY     1  -8  66 N20G25    30.36S WCI -20
MORRIS         FAIR       7  -2  66 N18       30.28R WCI -12
ALEXANDRIA     MOCLDY     4  -5  66 NE13      30.26S WCI -13
ELBOW LAKE     MOCLDY     2  -5  70 N15G21    30.30S WCI -16
WADENA         PTCLDY    -2  -9  71 NE15      30.31S WCI -22
GLENWOOD       MOCLDY     7  -2  66 N21       30.24R WCI -13
APPLETON       CLOUDY    12   1  62 N18G24    30.26R WCI  -5
BENSON         CLOUDY    10   0  61 NE16G23   30.25R WCI  -7
ORTONVILLE     CLOUDY     5  -2  72 N23G30    30.28R WCI -17
MADISON        MOCLDY    14   5  67 N24G30    30.25R WCI  -5
WILLMAR        FAIR      12   1  62 NE23      30.21R WCI  -7
$$
MNZ033>034-036-042>043-049>051-058-059-011200-
   Central Minnesota

CITY           SKY/WX    TMP DP  RH WIND       PRES   REMARKS
ST CLOUD       CLOUDY     9   0  67 NE9G20    30.24S WCI  -4
SAUK CENTRE    FAIR       6  -3  66 N16       30.25R WCI -12
PAYNESVILLE    CLOUDY     7  -1  70 N15G24    30.22S WCI -10
AITKIN         MOCLDY     1  -9  60 N10       30.31S WCI -14
PINE RIVER     CLOUDY    -2  -9  71 N14       30.36F WCI -21
BRAINERD       MOCLDY     1  -9  62 N13       30.31F WCI -17
STAPLES        MOCLDY     0  -9  65 N9G18     30.31S WCI -16
LONG PRAIRIE   FAIR       3  -6  66 N14       30.27R WCI -15
LITTLE FALLS   MOCLDY     5  -6  61 N5        30.29R WCI  -4
LITCHFIELD     CLOUDY    14   5  67 NE20      30.20R WCI  -3
BUFFALO        CLOUDY    14   7  72 N12G25    30.20F WCI   0
MAPLE LAKE     CLOUDY    13   7  74 N15       30.22S WCI  -2
$$
MNZ037-044-045-052-053-011200-
   East Central Minnesota

CITY           SKY/WX    TMP DP  RH WIND       PRES   REMARKS
PRINCETON      CLOUDY    10   1  67 N13G21    30.23F WCI  -5
MORA           CLOUDY     7  -2  66 N3        30.28S
CAMBRIDGE      CLOUDY    12   3  67 N8G16     30.23S WCI   1
RUSH CITY      CLOUDY    10   5  78 NE13G18   30.25F WCI  -5
MOOSE LAKE     MOCLDY     3  -6  66 N9        30.29F WCI -11
HINCKLEY         N/A      9   1  72 N12G20    30.28S WCI  -6
CLOQUET        CLOUDY     0  -9  65 N8        30.30S WCI -15
MCGREGOR       MOCLDY     0  -8  71 N7        30.33S WCI -13
$$
MNZ071>073-080-081-089-090-097-098-011200-
   Southwest Minnesota

CITY           SKY/WX    TMP DP  RH WIND       PRES   REMARKS
MONTEVIDEO     CLOUDY    12   5  73 NE20      30.23R WCI  -6
GRANITE FALLS  LGT SNOW  13   8  81 N20       30.21S WCI  -5
CANBY          CLOUDY    10   4  75 N20G28    30.23R WCI  -9
MARSHALL       CLOUDY    12   7  79 N21G26    30.17R WCI  -6
REDWOOD FALLS  LGT SNOW  15  11  83 NE10G21   30.16R FOG     WCI   2
OLIVIA         LGT SNOW  14   9  79 NE16G25   30.18R WCI  -2
PIPESTONE      LGT SNOW  14  10  85 NE22G28   30.06S WCI  -4
WINDOM         LGT SNOW  16  12  86 N24G32    30.05S WCI  -3
WORTHINGTON    CLOUDY    27  10  50 N26G35    30.03S WCI  11
JACKSON        LGT SNOW  19  14  79 N24G33    30.02S WCI   2
TRACY          LGT SNOW  16  13  89 N20G28    30.13R WCI  -1
SLAYTON        LGT SNOW  14  12  90 N16G23    30.07R WCI  -2
$$
MNZ065>067-074>077-082>085-091>093-011200-
   South Central Minnesota

CITY           SKY/WX    TMP DP  RH WIND       PRES   REMARKS
MANKATO        CLOUDY    16  10  79 NE22G28   30.09S WCI  -2
NEW ULM        LGT SNOW  16  12  86 NE18G25   30.12R WCI  -1
FAIRMONT       CLOUDY    18  12  79 NE21      30.02S WCI   1
GLENCOE        CLOUDY    16  12  84 N12G20    30.15S FOG     WCI   3
FARIBAULT      LGT SNOW  16  12  86 NE15G24   30.10S WCI   1
OWATONNA       LGT SNOW  18  12  79 NE22G29   30.06S WCI   0
WASECA         LGT SNOW  18  14  86 NE23G31   30.07R WCI   0
ALBERT LEA     LGT SNOW  18  16  93 NE22G29   30.01R VSB 3/4 WCI   0
$$
MNZ078>079-086>088-094>096-011200-
   Southeast Minnesota

CITY           SKY/WX    TMP DP  RH WIND       PRES   REMARKS
ROCHESTER      LGT SNOW  18  14  84 NE22      30.04R VSB 1   WCI   1
RED WING       LGT SNOW  16  10  79 E10G22    30.15S WCI   3
STANTON        LGT SNOW  17  13  84 NE16G22   30.12S WCI   2
DODGE CENTER   LGT SNOW  16  14  93 NE17G25   30.04S WCI   0
WINONA         LGT SNOW  21  18  86 NE8       30.14R WCI  12
AUSTIN         LGT SNOW  18  16  93 NE17G25   30.00S WCI   2
PRESTON          N/A     18  16  90 NE15G25   30.02S WCI   4
$$
ABBREVIATIONS USED IN REMARKS
   TC - TEMPERATURES IN CELSIUS
  WCI - WIND CHILL INDEX
   HX - HEAT INDEX
  VSB - VISIBILITY
$$



USA.gov is the U.S. government's official web portal to all federal, state and local government web resources and services.